Theta_e
340 342 346 346 345 344 343 343 344 344 344 344 344 344 344 346 346 345 346 346 345 344 343 342 342 341 339 338 338 337 332 331
338 339 341 341 343 343 342 342 342 343 343 343 342 342 343 344 343 341 341 345 344 343 342 341 341 338 337 339 338 336 330 328
340 339 340 340 341 344 343 343 342 342 342 341 339 341 340 341 339 339 339 341 342 342 341 340 338 338 338 339 337 331 328 327
339 340 341 342 343 343 341 342 340 339 339 340 339 340 340 340 339 338 338 339 340 340 339 338 337 334 335 337 333 329 327 327
338 342 342 342 341 341 341 340 339 339 338 339 340 339 338 336 335 337 339 340 337 337 336 334 332 333 335 335 330 327 326 326
337 341 342 341 341 340 341 340 340 340 339 339 338 339 335 335 335 337 337 335 333 333 332 329 329 336 335 330 329 326 325 325
336 339 341 341 341 340 340 340 339 339 338 338 336 336 337 337 336 335 334 333 333 332 330 328 333 334 333 330 327 326 324 324
337 338 342 341 340 339 339 339 338 336 336 336 334 337 337 335 332 330 329 332 334 333 330 332 333 333 331 329 327 325 324 322
335 339 342 340 339 338 339 338 336 333 334 335 334 333 335 332 331 329 329 333 333 333 332 333 334 333 330 329 327 324 323 321
335 340 341 340 339 338 338 338 336 333 333 333 333 333 331 329 330 330 334 333 333 333 333 333 332 331 328 327 326 324 322 320
333 339 339 339 339 339 338 338 335 333 333 332 332 333 332 329 331 333 335 334 334 334 333 332 330 329 327 326 325 324 324 322
333 336 339 340 338 339 338 337 334 333 331 331 331 331 331 331 334 334 335 335 333 332 330 330 330 327 324 320 321 322 321 322
333 334 335 338 336 335 335 333 333 331 330 331 329 330 329 330 332 332 334 334 333 331 329 326 322 320 316 314 314 315 316 319
333 334 334 336 336 337 337 335 335 333 331 331 330 330 330 330 329 331 332 333 332 330 328 323 319 322 316 313 310 313 315 316
331 334 334 334 337 337 336 336 335 332 331 330 331 332 331 329 328 332 332 333 331 330 327 323 318 321 321 316 311 310 310 315
309 333 334 334 337 335 333 332 330 331 331 330 330 331 331 326 327 332 333 333 332 330 329 323 321 320 321 323 320 315 310 309
305 322 333 334 335 335 333 332 333 332 331 329 328 330 332 331 331 331 331 333 333 330 327 323 323 322 322 321 319 318 317 310
301 308 321 332 333 333 332 332 332 331 329 326 327 329 328 330 331 331 331 331 331 331 328 326 324 324 324 322 321 318 314 312
301 305 311 316 331 331 331 330 332 330 327 327 325 325 325 326 327 328 331 331 333 331 328 327 326 324 324 325 325 323 320 315
300 303 307 313 317 328 331 331 330 332 329 328 326 325 325 325 325 327 330 331 333 332 330 329 328 327 325 326 327 326 324 318
Wind_Speed
9 7 9 11 12 13 17 19 19 21 21 19 19 19 20 20 20 20 18 17 16 13 11 11 10 9 8 9 22 21 13 9
11 7 6 6 8 14 19 20 20 21 20 18 17 15 17 20 22 21 18 15 15 13 11 10 10 7 9 16 19 20 12 11
11 10 8 7 7 12 17 20 21 22 20 17 13 7 10 17 17 20 19 16 15 14 12 10 10 7 10 16 16 9 10 7
11 10 10 11 8 11 11 13 11 11 11 10 7 9 9 11 16 16 12 14 15 13 12 9 7 4 4 10 8 10 8 7
11 10 11 12 10 8 7 7 7 8 12 9 8 8 8 8 7 8 8 12 7 8 7 5 4 4 6 6 10 10 7 6
12 12 12 11 9 9 9 8 8 8 9 12 7 7 8 8 7 8 10 6 6 5 4 5 4 6 10 10 11 9 6 4
12 11 13 12 12 9 9 9 9 10 10 11 6 10 9 9 8 7 7 7 8 6 6 4 5 7 9 12 11 11 10 5
16 15 15 14 11 13 10 8 10 10 9 9 7 11 8 9 9 8 7 7 8 7 7 4 5 8 10 11 11 10 8 5
18 18 17 18 15 11 9 9 10 10 10 10 8 7 11 11 10 9 9 8 8 7 5 4 8 6 10 10 10 10 8 7
19 16 18 18 16 12 10 10 10 9 8 7 7 4 14 11 10 10 9 9 6 7 7 7 8 8 8 7 8 9 9 7
20 18 20 18 17 13 11 12 10 10 8 8 8 6 5 11 10 10 9 7 6 8 8 10 9 8 7 6 6 7 9 8
23 16 20 17 13 11 10 10 10 10 10 9 8 6 5 2 5 10 7 8 9 9 11 7 10 9 8 6 4 3 3 3
22 20 18 16 12 12 11 12 11 10 10 13 12 8 12 9 5 6 6 9 11 12 11 14 7 9 7 5 3 4 3 2
23 23 21 16 13 12 11 11 9 11 12 14 15 15 11 6 6 10 7 9 13 13 12 8 5 9 5 3 2 2 3 3
14 22 23 19 17 11 8 9 8 11 14 13 13 15 14 11 5 7 7 9 11 14 13 10 10 7 12 5 4 4 3 3
20 12 23 20 20 17 17 14 12 10 13 13 11 12 14 17 18 9 9 9 12 11 13 10 11 12 6 5 3 6 5 2
18 15 15 21 19 20 17 15 11 10 11 17 15 13 17 16 16 5 5 8 10 14 13 11 11 11 8 7 3 3 3 5
19 19 17 18 22 21 22 21 16 13 15 13 14 13 13 16 17 12 9 14 19 17 15 15 12 11 8 6 4 5 4 4
17 18 18 20 16 22 21 20 21 20 19 17 18 15 14 19 17 13 7 9 15 15 15 14 14 12 12 9 5 5 4 4
21 20 20 18 14 14 20 22 14 16 18 15 15 16 18 21 19 16 14 16 13 14 11 11 12 11 13 12 8 7 4 4
Wind_Direction
126 134 143 144 146 147 141 139 140 137 133 136 132 127 127 130 126 126 127 129 133 151 145 129 127 128 115 82 114 108 106 107
138 143 136 136 151 143 143 142 142 136 128 132 125 119 124 130 133 136 141 139 151 154 137 140 131 136 90 114 114 100 103 101
143 148 147 139 135 152 145 144 144 139 129 130 129 131 145 143 147 152 154 153 161 150 140 147 141 130 100 135 105 106 106 106
152 152 149 142 144 149 146 147 146 145 141 143 147 153 149 149 144 146 166 167 157 137 143 144 139 123 100 96 111 105 102 107
159 156 143 142 146 149 151 148 151 150 152 158 156 144 145 141 148 168 167 149 151 137 139 164 164 127 109 101 107 103 107 109
166 155 145 142 150 158 157 156 161 153 160 157 153 151 151 156 158 157 156 150 143 137 161 180 157 123 116 111 109 109 112 111
169 158 146 148 153 156 154 160 160 155 159 162 148 152 150 155 155 150 152 156 160 157 171 174 125 125 114 116 116 118 123 127
174 171 148 148 158 163 158 155 151 153 162 168 150 152 147 154 152 157 161 157 166 167 176 145 127 123 115 123 125 120 123 113
176 167 153 151 158 163 161 154 153 161 166 160 141 149 159 155 160 164 170 163 171 168 157 124 122 129 117 123 121 127 132 129
172 169 159 153 158 161 166 160 156 162 162 155 142 165 156 158 168 172 177 169 162 155 140 126 128 133 121 126 130 136 142 144
172 164 161 153 159 160 168 162 156 158 166 172 162 155 142 161 175 179 178 161 146 137 139 133 132 126 123 115 129 146 154 159
173 163 159 152 157 158 164 167 162 164 164 172 176 171 137 182 166 184 167 143 134 136 135 133 133 128 113 81 60 84 129 162
172 160 163 148 153 165 168 172 161 158 157 166 161 183 197 200 167 185 162 146 145 148 140 138 111 131 107 75 37 24 18 352
169 168 165 167 159 165 170 171 166 162 162 167 177 192 227 184 159 199 178 145 154 147 152 140 118 163 126 114 128 350 310 282
193 166 167 170 161 143 164 159 160 167 171 176 182 184 181 210 232 215 175 152 162 158 163 160 154 186 164 140 150 192 146 221
346 225 167 168 163 156 163 176 168 169 174 177 179 191 161 189 213 244 188 157 162 169 171 169 161 169 184 230 186 144 168 169
339 319 204 169 172 170 169 169 174 157 173 173 182 181 182 191 213 227 189 162 179 176 180 173 173 169 191 193 192 205 137 140
349 343 313 195 179 171 172 167 171 163 170 172 184 185 191 206 209 216 164 184 201 181 176 171 174 178 186 199 192 170 178 144
352 350 332 324 210 181 168 161 168 172 170 178 175 186 191 206 201 214 208 195 179 171 176 177 174 176 188 204 215 197 158 130
352 355 335 333 346 276 185 170 165 176 177 181 183 184 193 197 203 204 204 213 183 171 174 184 183 181 190 201 202 207 174 157